OBJECT M

基本信息
目录编号:
66304
目录名称:
OBJECT M
国际标识:
2025-248M
轨道中心:
EARTH
物体状态:
在轨
发射日期:
2025-11-02 UTC
国别:
(TBD)
轨道信息
数据来源: 国际轨道数据
星历时间: 2026-09-05T02:33:01+0800
半长轴: 6853.806km
偏心率: 0.0008138
轨道倾角: 45.419°
近地点辐角: 173.052°
升交点赤经: 41.400°
平近点角: 187.049°
近地点: 470.091km
远地点: 481.247km
周期: 94.115分钟
每日圈数: 15.300483
详细信息
发射场:
AFETR
轨道高度:
LEO
数据来源:
AOE Working Group
参考系:
TEME
时间系统:
UTC
历元类型:
SGP4
2D轨道图
3D轨道图
轨道高度分析图
轨道倾角分析图
轨道综合分析图
查看轨道综合分析图